BAW461 LEMD-EGLL

Flight info

Callsign BAW461
Flight time N/A
Altitude 34000
Route SIE2N SIE N858 DGO N867 NENEM/N0479F400 DCT YURZI DCT ERIGA DCT ARTIV DCT REVTU/N0449F340 UP87 ROXOG ROXOG1H
Aircraft B772/H-SDE1E3FGHIJ3J5J6M1M2P2RWXYZ/LB1D1

Departure

Time 2026-05-04 07:50
Airport Adolfo Suárez Madrid–Barajas Airport (LEMD)

Arrival

Time N/A
Airport London Heathrow Airport (EGLL)
Time Latitude Longitude Altitude Speed Heading
2026-05-04 07:33 40.48997 -3.56640 1967 ft 0 kts 319°
2026-05-04 07:41 40.48996 -3.56638 1967 ft 1 kts 319°
2026-05-04 07:41 40.48984 -3.56626 1967 ft 2 kts 320°
2026-05-04 07:42 40.48973 -3.56613 1966 ft 2 kts 320°
2026-05-04 07:42 40.48961 -3.56600 1966 ft 2 kts 320°
2026-05-04 07:42 40.48950 -3.56588 1966 ft 2 kts 320°
2026-05-04 07:42 40.48938 -3.56575 1965 ft 2 kts 320°
2026-05-04 07:43 40.48927 -3.56562 1965 ft 2 kts 320°
2026-05-04 07:43 40.48915 -3.56550 1965 ft 2 kts 336°
2026-05-04 07:43 40.48901 -3.56545 1965 ft 1 kts 356°
2026-05-04 07:43 40.48894 -3.56545 1965 ft 1 kts
2026-05-04 07:44 40.48893 -3.56545 1965 ft 0 kts 360°
2026-05-04 07:45 40.48897 -3.56545 1965 ft 2 kts 359°
2026-05-04 07:45 40.48931 -3.56545 1964 ft 7 kts 359°
2026-05-04 07:46 40.48999 -3.56545 1963 ft 11 kts 359°
2026-05-04 07:46 40.49096 -3.56546 1960 ft 16 kts 359°
2026-05-04 07:46 40.49227 -3.56546 1955 ft 21 kts 359°
2026-05-04 07:46 40.49392 -3.56547 1949 ft 25 kts 360°
2026-05-04 07:47 40.49558 -3.56549 1942 ft 23 kts 359°
2026-05-04 07:47 40.49626 -3.56549 1941 ft 24 kts 359°
2026-05-04 07:47 40.49703 -3.56550 1940 ft 25 kts 359°
2026-05-04 07:49 40.50071 -3.55922 1922 ft 20 kts
2026-05-04 07:49 40.50326 -3.55920 1924 ft 68 kts 359°
2026-05-04 07:49 40.51144 -3.55923 1924 ft 163 kts 360°
2026-05-04 07:50 40.52401 -3.55867 2676 ft 183 kts
2026-05-04 07:50 40.53579 -3.55752 3813 ft 174 kts
2026-05-04 07:50 40.54856 -3.55730 4311 ft 191 kts 359°
2026-05-04 07:50 40.56240 -3.55738 4800 ft 210 kts 358°
2026-05-04 07:51 40.57737 -3.55748 5439 ft 223 kts 358°
2026-05-04 07:51 40.59306 -3.55535 6225 ft 230 kts 11°
2026-05-04 07:51 40.60866 -3.55042 7028 ft 235 kts 13°
2026-05-04 07:51 40.62438 -3.54524 7832 ft 239 kts 12°
2026-05-04 07:52 40.64045 -3.54006 8607 ft 243 kts
2026-05-04 07:52 40.65727 -3.53998 9347 ft 243 kts 340°
2026-05-04 07:52 40.67159 -3.55037 10061 ft 240 kts 317°
2026-05-04 07:52 40.68604 -3.56100 10949 ft 244 kts 342°
2026-05-04 07:53 40.70305 -3.56405 11661 ft 252 kts 352°
2026-05-04 07:54 40.83916 -3.57597 15513 ft 334 kts 352°
2026-05-04 07:55 40.86279 -3.57813 15939 ft 350 kts 352°
2026-05-04 07:55 40.88758 -3.58041 16350 ft 367 kts 352°
2026-05-04 07:55 40.91361 -3.58281 16805 ft 382 kts 352°
2026-05-04 07:55 40.94051 -3.58528 17313 ft 395 kts 352°
2026-05-04 07:56 40.96820 -3.58782 18041 ft 400 kts 352°
2026-05-04 07:56 40.99615 -3.59037 18819 ft 404 kts 352°
2026-05-04 07:56 41.02409 -3.59294 19513 ft 410 kts 352°
2026-05-04 07:56 41.05262 -3.59557 20211 ft 416 kts 351°
2026-05-04 07:57 41.08196 -3.59828 20875 ft 422 kts 351°
2026-05-04 07:57 41.11130 -3.60098 21592 ft 426 kts 352°
2026-05-04 07:57 41.14103 -3.60078 22210 ft 436 kts
2026-05-04 07:57 41.17093 -3.59381 22766 ft 448 kts 12°
2026-05-04 07:58 41.20090 -3.57983 23396 ft 455 kts 20°
2026-05-04 07:58 41.23006 -3.56357 24019 ft 460 kts 20°
2026-05-04 07:58 41.25947 -3.54710 24572 ft 466 kts 20°
2026-05-04 07:58 41.28950 -3.53037 25194 ft 470 kts 20°
2026-05-04 07:59 41.31982 -3.51356 25797 ft 473 kts 19°
2026-05-04 07:59 41.35032 -3.49670 26390 ft 477 kts 19°
2026-05-04 07:59 41.38135 -3.47958 26962 ft 481 kts 20°
2026-05-04 07:59 41.41235 -3.46249 27519 ft 485 kts 19°
2026-05-04 08:00 41.44369 -3.44522 28062 ft 489 kts 19°
2026-05-04 08:00 41.47504 -3.42795 28555 ft 494 kts 19°
2026-05-04 08:00 41.50699 -3.41034 29047 ft 498 kts 19°
2026-05-04 08:02 41.73013 -3.28690 33056 ft 496 kts 19°
2026-05-04 08:02 41.76145 -3.26951 33583 ft 494 kts 19°
2026-05-04 08:02 41.79327 -3.25182 33910 ft 496 kts 20°
2026-05-04 08:03 41.85680 -3.21646 33972 ft 492 kts 20°
2026-05-04 08:03 41.91993 -3.18125 33983 ft 491 kts 20°
2026-05-04 08:04 41.98275 -3.14613 33986 ft 492 kts 20°
2026-05-04 08:04 42.04581 -3.11079 34000 ft 491 kts 20°
2026-05-04 08:05 42.10876 -3.07546 33989 ft 490 kts 20°
2026-05-04 08:05 42.17134 -3.04026 33981 ft 490 kts 20°
2026-05-04 08:06 42.23402 -3.00492 33996 ft 489 kts 20°
2026-05-04 08:06 42.29702 -2.96933 33984 ft 488 kts 20°
2026-05-04 08:08 42.52166 -2.88504 33972 ft 480 kts 352°
2026-05-04 08:08 42.55486 -2.88712 33977 ft 476 kts 352°
2026-05-04 08:11 42.85005 -2.90623 33980 ft 473 kts 353°
2026-05-04 08:11 42.94886 -2.91264 33981 ft 472 kts 353°
2026-05-04 08:12 43.01416 -2.91689 33975 ft 472 kts 353°
2026-05-04 08:12 43.07927 -2.92114 33982 ft 471 kts 353°
2026-05-04 08:13 43.14494 -2.92543 33969 ft 472 kts 353°
2026-05-04 08:13 43.21049 -2.92973 33979 ft 472 kts 353°
2026-05-04 08:14 43.27599 -2.93403 33976 ft 472 kts 353°
2026-05-04 08:16 43.53103 -3.00033 33984 ft 469 kts 344°
2026-05-04 08:16 43.59486 -3.01859 33975 ft 467 kts 345°
2026-05-04 08:17 43.65814 -3.03673 33973 ft 468 kts 345°
2026-05-04 08:17 43.72210 -3.05510 33971 ft 469 kts 345°
2026-05-04 08:19 43.97654 -3.12855 33977 ft 468 kts 345°
2026-05-04 08:20 44.04044 -3.14400 33971 ft 472 kts 354°
2026-05-04 08:20 44.07335 -3.14304 33974 ft 473 kts
2026-05-04 08:20 44.10592 -3.13585 33977 ft 476 kts
2026-05-04 08:21 44.17095 -3.11848 33966 ft 476 kts
2026-05-04 08:21 44.23581 -3.10104 33972 ft 477 kts
2026-05-04 08:22 44.30065 -3.08360 33964 ft 476 kts
2026-05-04 08:24 44.56064 -3.01335 33971 ft 477 kts
2026-05-04 08:24 44.62556 -2.99572 33973 ft 477 kts
2026-05-04 08:25 44.69052 -2.97804 33977 ft 477 kts 10°
2026-05-04 08:25 44.75560 -2.96028 33973 ft 477 kts 10°
2026-05-04 08:27 45.01532 -2.88901 33971 ft 476 kts 10°
2026-05-04 08:28 45.08037 -2.87106 33985 ft 476 kts 10°
2026-05-04 08:28 45.13444 -2.85611 33961 ft 476 kts 10°
2026-05-04 08:29 45.20974 -2.83524 33971 ft 476 kts 10°
2026-05-04 08:31 45.46858 -2.76305 33979 ft 475 kts 10°
2026-05-04 08:33 45.72681 -2.69036 33957 ft 473 kts 10°
2026-05-04 08:35 45.98380 -2.61734 33971 ft 471 kts 10°
2026-05-04 08:35 46.04788 -2.59902 33967 ft 472 kts 11°
2026-05-04 08:37 46.27264 -2.53443 33952 ft 473 kts 11°
2026-05-04 08:38 46.33734 -2.51574 33980 ft 473 kts 11°
2026-05-04 08:38 46.40169 -2.49710 33967 ft 473 kts 11°
2026-05-04 08:40 46.65890 -2.42216 33962 ft 472 kts 11°
2026-05-04 08:41 46.72372 -2.40316 33964 ft 474 kts 11°
2026-05-04 08:41 46.78777 -2.38434 33975 ft 475 kts 11°
2026-05-04 08:42 46.85251 -2.36527 33968 ft 474 kts 11°
2026-05-04 08:42 46.91699 -2.34882 33978 ft 475 kts
2026-05-04 08:43 46.98204 -2.33365 33958 ft 473 kts
2026-05-04 08:43 47.04718 -2.31828 33969 ft 475 kts
2026-05-04 08:44 47.11227 -2.30280 33960 ft 473 kts
2026-05-04 08:46 47.37209 -2.24034 33964 ft 474 kts
2026-05-04 08:46 47.43711 -2.22459 33957 ft 475 kts
2026-05-04 08:47 47.50238 -2.20874 33949 ft 476 kts
2026-05-04 08:47 47.56718 -2.19296 33956 ft 474 kts
2026-05-04 08:48 47.62328 -2.17927 33955 ft 476 kts